Precipitable_Water
0.29 0.15 0.12 0.10 0.09 0.11 0.19 0.23 0.20 0.22 0.28 0.30 0.28 0.29 0.29 0.30 0.31 0.39 0.38 0.39 0.47 0.42 0.41 0.44 0.47 0.43 0.45 0.47 0.56 0.65 0.68 0.71 0.72 0.73 0.76 0.79 0.81 0.82 0.83 0.85 0.86 0.88 0.89 0.91 0.93 0.94 0.94 0.95 0.98 1.01 1.03 1.03 1.04 1.06 1.07 1.09 1.10 1.10 1.09 1.09 1.08 1.09 1.09 1.07 1.06 1.07 1.06 1.05 1.05 1.03 1.02 1.00 0.98 0.99 0.99 0.99 0.98 0.98 0.95 0.93 0.93 0.93 0.92 0.90 0.91 0.93
0.28 0.16 0.12 0.13 0.13 0.15 0.20 0.26 0.25 0.24 0.29 0.30 0.26 0.25 0.27 0.33 0.29 0.36 0.38 0.42 0.46 0.37 0.38 0.42 0.45 0.44 0.46 0.50 0.51 0.58 0.64 0.66 0.69 0.69 0.72 0.76 0.78 0.80 0.81 0.82 0.84 0.85 0.87 0.89 0.90 0.90 0.91 0.93 0.95 0.96 0.98 0.99 1.01 1.02 1.02 1.01 1.00 1.01 1.01 1.04 1.04 1.05 1.05 1.06 1.05 1.04 1.03 1.03 1.03 1.01 0.98 0.95 0.93 0.93 0.93 0.92 0.92 0.91 0.90 0.89 0.87 0.86 0.83 0.82 0.81 0.81
0.20 0.15 0.15 0.19 0.20 0.19 0.20 0.25 0.26 0.23 0.26 0.30 0.26 0.24 0.30 0.34 0.34 0.39 0.42 0.43 0.41 0.39 0.36 0.41 0.39 0.42 0.43 0.49 0.53 0.57 0.59 0.63 0.67 0.68 0.71 0.74 0.76 0.77 0.79 0.80 0.82 0.83 0.84 0.86 0.87 0.88 0.89 0.89 0.90 0.91 0.92 0.93 0.94 0.95 0.95 0.94 0.94 0.95 0.98 0.99 1.00 1.02 1.04 1.04 1.04 1.03 1.02 1.01 1.00 0.98 0.97 0.96 0.93 0.90 0.88 0.86 0.84 0.84 0.82 0.81 0.80 0.77 0.76 0.74 0.73 0.72
0.16 0.17 0.22 0.24 0.23 0.18 0.19 0.25 0.25 0.24 0.29 0.30 0.26 0.24 0.28 0.39 0.32 0.26 0.39 0.43 0.41 0.37 0.32 0.36 0.36 0.38 0.42 0.48 0.52 0.58 0.62 0.65 0.67 0.68 0.70 0.73 0.73 0.75 0.78 0.79 0.80 0.81 0.81 0.81 0.82 0.83 0.84 0.85 0.86 0.87 0.87 0.87 0.87 0.89 0.89 0.90 0.91 0.92 0.92 0.93 0.94 0.96 0.97 0.99 0.98 0.98 0.98 0.97 0.96 0.95 0.92 0.88 0.86 0.83 0.82 0.81 0.78 0.77 0.75 0.74 0.73 0.72 0.71 0.70 0.69 0.69
0.17 0.24 0.30 0.27 0.22 0.18 0.17 0.22 0.22 0.21 0.21 0.30 0.28 0.27 0.32 0.37 0.38 0.33 0.32 0.41 0.42 0.41 0.38 0.32 0.33 0.33 0.40 0.39 0.46 0.52 0.60 0.62 0.63 0.65 0.68 0.70 0.73 0.75 0.77 0.77 0.78 0.79 0.79 0.79 0.79 0.80 0.81 0.81 0.82 0.83 0.83 0.83 0.84 0.85 0.86 0.87 0.88 0.88 0.89 0.90 0.90 0.90 0.90 0.91 0.91 0.91 0.90 0.89 0.88 0.87 0.85 0.83 0.80 0.79 0.77 0.73 0.71 0.70 0.70 0.69 0.69 0.69 0.69 0.69 0.68 0.67
0.20 0.25 0.30 0.28 0.22 0.19 0.19 0.19 0.21 0.21 0.19 0.27 0.30 0.30 0.35 0.39 0.37 0.38 0.37 0.35 0.34 0.32 0.37 0.33 0.21 0.23 0.32 0.38 0.43 0.47 0.55 0.58 0.60 0.60 0.65 0.69 0.72 0.73 0.74 0.75 0.76 0.77 0.78 0.78 0.78 0.78 0.79 0.80 0.80 0.81 0.81 0.81 0.80 0.81 0.81 0.82 0.82 0.82 0.82 0.83 0.84 0.83 0.82 0.82 0.82 0.82 0.81 0.80 0.78 0.74 0.71 0.70 0.68 0.66 0.66 0.64 0.64 0.65 0.65 0.66 0.66 0.65 0.65 0.64 0.63 0.62
0.22 0.26 0.26 0.25 0.23 0.20 0.19 0.18 0.22 0.25 0.20 0.26 0.28 0.34 0.37 0.39 0.40 0.39 0.39 0.34 0.29 0.25 0.34 0.42 0.22 0.17 0.29 0.32 0.42 0.49 0.55 0.57 0.60 0.61 0.66 0.69 0.71 0.72 0.72 0.73 0.74 0.75 0.75 0.76 0.76 0.77 0.78 0.79 0.79 0.79 0.79 0.79 0.79 0.79 0.79 0.79 0.78 0.76 0.75 0.75 0.74 0.74 0.73 0.72 0.72 0.71 0.70 0.69 0.69 0.69 0.68 0.67 0.65 0.64 0.64 0.63 0.63 0.62 0.61 0.60 0.58 0.58 0.58 0.58 0.57 0.56
0.23 0.23 0.22 0.24 0.24 0.21 0.19 0.17 0.23 0.26 0.23 0.25 0.38 0.38 0.35 0.37 0.38 0.40 0.39 0.36 0.34 0.42 0.41 0.40 0.33 0.21 0.20 0.27 0.37 0.45 0.51 0.54 0.57 0.59 0.63 0.66 0.67 0.68 0.69 0.71 0.72 0.73 0.75 0.76 0.75 0.75 0.75 0.76 0.75 0.75 0.76 0.75 0.75 0.74 0.73 0.72 0.71 0.69 0.69 0.69 0.69 0.70 0.70 0.69 0.68 0.67 0.67 0.65 0.65 0.65 0.65 0.64 0.63 0.61 0.59 0.58 0.57 0.57 0.56 0.55 0.54 0.54 0.54 0.54 0.53 0.52
0.23 0.19 0.19 0.18 0.22 0.21 0.16 0.18 0.24 0.27 0.23 0.28 0.40 0.40 0.32 0.34 0.37 0.44 0.40 0.37 0.37 0.36 0.34 0.38 0.38 0.26 0.23 0.25 0.32 0.35 0.38 0.46 0.53 0.57 0.60 0.63 0.65 0.66 0.67 0.68 0.70 0.72 0.74 0.75 0.74 0.74 0.73 0.70 0.69 0.69 0.69 0.71 0.71 0.72 0.72 0.73 0.73 0.72 0.71 0.69 0.66 0.65 0.66 0.66 0.66 0.66 0.66 0.66 0.65 0.63 0.62 0.60 0.60 0.58 0.56 0.55 0.55 0.53 0.53 0.51 0.51 0.50 0.50 0.50 0.49 0.49
0.27 0.23 0.21 0.21 0.22 0.18 0.19 0.23 0.28 0.26 0.22 0.33 0.43 0.45 0.39 0.37 0.39 0.43 0.39 0.36 0.36 0.33 0.28 0.35 0.39 0.26 0.24 0.29 0.29 0.33 0.32 0.35 0.43 0.52 0.57 0.61 0.64 0.66 0.67 0.68 0.70 0.72 0.73 0.74 0.74 0.72 0.71 0.70 0.68 0.68 0.70 0.70 0.71 0.71 0.70 0.70 0.70 0.69 0.68 0.68 0.67 0.68 0.68 0.66 0.65 0.63 0.61 0.60 0.59 0.57 0.57 0.55 0.54 0.53 0.52 0.51 0.50 0.49 0.48 0.47 0.46 0.45 0.45 0.45 0.45 0.45
0.31 0.32 0.34 0.25 0.20 0.24 0.25 0.28 0.29 0.28 0.31 0.42 0.45 0.40 0.37 0.34 0.35 0.39 0.38 0.36 0.33 0.25 0.30 0.37 0.36 0.30 0.20 0.26 0.27 0.26 0.27 0.33 0.40 0.45 0.52 0.58 0.63 0.66 0.67 0.69 0.70 0.69 0.69 0.69 0.69 0.69 0.69 0.71 0.72 0.73 0.72 0.72 0.72 0.72 0.71 0.71 0.71 0.69 0.68 0.66 0.64 0.63 0.62 0.60 0.58 0.57 0.56 0.56 0.55 0.54 0.54 0.52 0.51 0.50 0.48 0.46 0.45 0.45 0.44 0.43 0.43 0.42 0.42 0.42 0.41 0.40
0.28 0.29 0.27 0.28 0.33 0.32 0.32 0.28 0.32 0.37 0.38 0.37 0.39 0.35 0.34 0.26 0.32 0.31 0.34 0.38 0.26 0.23 0.33 0.41 0.40 0.35 0.21 0.25 0.32 0.36 0.41 0.41 0.39 0.41 0.46 0.51 0.57 0.61 0.64 0.65 0.66 0.67 0.68 0.69 0.69 0.70 0.72 0.74 0.74 0.73 0.71 0.71 0.70 0.69 0.69 0.68 0.66 0.64 0.61 0.60 0.58 0.56 0.56 0.55 0.54 0.53 0.52 0.52 0.52 0.52 0.51 0.49 0.47 0.46 0.45 0.44 0.43 0.42 0.42 0.41 0.40 0.39 0.37 0.35 0.35 0.33
0.20 0.22 0.30 0.30 0.37 0.33 0.29 0.26 0.27 0.33 0.37 0.37 0.37 0.37 0.24 0.19 0.20 0.16 0.23 0.20 0.22 0.21 0.32 0.40 0.41 0.33 0.29 0.33 0.39 0.41 0.44 0.46 0.47 0.48 0.49 0.51 0.54 0.57 0.61 0.63 0.66 0.68 0.69 0.71 0.72 0.73 0.74 0.74 0.73 0.71 0.70 0.68 0.67 0.65 0.63 0.60 0.58 0.57 0.55 0.54 0.53 0.53 0.52 0.52 0.51 0.50 0.49 0.48 0.48 0.47 0.47 0.46 0.46 0.44 0.43 0.42 0.41 0.40 0.39 0.37 0.35 0.33 0.31 0.30 0.27 0.26
0.18 0.26 0.25 0.27 0.33 0.36 0.33 0.20 0.20 0.22 0.32 0.34 0.32 0.33 0.24 0.18 0.13 0.12 0.16 0.21 0.20 0.25 0.33 0.33 0.39 0.29 0.34 0.38 0.43 0.40 0.42 0.44 0.45 0.46 0.49 0.51 0.54 0.57 0.61 0.64 0.66 0.68 0.70 0.71 0.73 0.73 0.73 0.72 0.71 0.68 0.65 0.62 0.60 0.58 0.56 0.53 0.51 0.50 0.49 0.49 0.48 0.48 0.49 0.48 0.47 0.47 0.47 0.46 0.46 0.46 0.46 0.45 0.44 0.42 0.41 0.39 0.37 0.36 0.34 0.32 0.29 0.27 0.24 0.22 0.20 0.18
0.12 0.13 0.19 0.24 0.21 0.35 0.31 0.25 0.23 0.23 0.28 0.33 0.38 0.37 0.28 0.26 0.16 0.10 0.13 0.10 0.12 0.15 0.24 0.31 0.25 0.24 0.23 0.28 0.42 0.43 0.44 0.46 0.47 0.48 0.49 0.52 0.54 0.56 0.60 0.64 0.66 0.68 0.70 0.71 0.70 0.70 0.69 0.67 0.65 0.63 0.60 0.56 0.53 0.51 0.49 0.48 0.46 0.44 0.43 0.44 0.44 0.45 0.45 0.45 0.45 0.44 0.43 0.43 0.42 0.42 0.42 0.41 0.40 0.38 0.35 0.33 0.31 0.29 0.26 0.24 0.22 0.20 0.18 0.17 0.17 0.16
0.17 0.17 0.24 0.31 0.32 0.33 0.26 0.30 0.34 0.31 0.32 0.36 0.38 0.41 0.29 0.27 0.32 0.17 0.17 0.14 0.14 0.15 0.17 0.22 0.21 0.25 0.24 0.34 0.40 0.42 0.42 0.42 0.45 0.46 0.46 0.48 0.51 0.56 0.58 0.62 0.65 0.67 0.68 0.68 0.67 0.65 0.64 0.62 0.59 0.57 0.54 0.50 0.47 0.45 0.43 0.43 0.42 0.41 0.40 0.39 0.39 0.40 0.40 0.41 0.40 0.40 0.39 0.39 0.38 0.37 0.36 0.35 0.33 0.32 0.29 0.27 0.25 0.22 0.20 0.19 0.18 0.17 0.16 0.15 0.15 0.15
0.23 0.17 0.29 0.31 0.37 0.29 0.29 0.31 0.33 0.40 0.19 0.31 0.35 0.27 0.32 0.43 0.36 0.28 0.25 0.25 0.21 0.18 0.13 0.23 0.20 0.24 0.31 0.31 0.33 0.36 0.36 0.36 0.37 0.39 0.44 0.46 0.50 0.53 0.55 0.59 0.62 0.63 0.62 0.61 0.59 0.56 0.54 0.53 0.52 0.51 0.49 0.47 0.45 0.43 0.42 0.41 0.41 0.39 0.38 0.38 0.38 0.39 0.39 0.38 0.38 0.38 0.37 0.36 0.34 0.33 0.31 0.29 0.27 0.25 0.22 0.20 0.19 0.18 0.17 0.16 0.15 0.15 0.15 0.15 0.15 0.15
0.18 0.18 0.30 0.30 0.23 0.31 0.40 0.38 0.38 0.41 0.40 0.33 0.24 0.31 0.40 0.44 0.40 0.31 0.22 0.22 0.18 0.12 0.14 0.19 0.16 0.18 0.19 0.15 0.29 0.30 0.29 0.32 0.33 0.35 0.39 0.44 0.47 0.49 0.52 0.54 0.56 0.56 0.56 0.55 0.54 0.52 0.50 0.48 0.47 0.46 0.46 0.44 0.43 0.42 0.40 0.40 0.40 0.39 0.38 0.38 0.38 0.38 0.37 0.36 0.35 0.34 0.33 0.32 0.30 0.28 0.26 0.24 0.22 0.20 0.19 0.17 0.16 0.15 0.14 0.14 0.15 0.15 0.14 0.14 0.14 0.14
0.30 0.18 0.26 0.29 0.27 0.33 0.39 0.38 0.37 0.43 0.45 0.34 0.31 0.43 0.27 0.19 0.19 0.28 0.25 0.18 0.19 0.16 0.15 0.17 0.19 0.18 0.19 0.17 0.22 0.22 0.25 0.28 0.33 0.36 0.37 0.38 0.40 0.43 0.46 0.49 0.50 0.51 0.49 0.49 0.48 0.47 0.46 0.45 0.44 0.44 0.43 0.43 0.42 0.41 0.40 0.39 0.39 0.38 0.37 0.37 0.36 0.35 0.35 0.35 0.34 0.33 0.31 0.29 0.27 0.25 0.23 0.22 0.20 0.18 0.16 0.15 0.15 0.15 0.14 0.14 0.14 0.13 0.13 0.13 0.14 0.13
0.32 0.18 0.20 0.28 0.28 0.37 0.37 0.36 0.24 0.30 0.38 0.40 0.46 0.37 0.39 0.29 0.22 0.18 0.18 0.21 0.19 0.18 0.19 0.18 0.19 0.15 0.20 0.20 0.24 0.24 0.28 0.32 0.34 0.35 0.35 0.37 0.38 0.39 0.41 0.44 0.46 0.47 0.46 0.45 0.44 0.43 0.43 0.42 0.42 0.41 0.41 0.40 0.40 0.40 0.39 0.38 0.37 0.36 0.35 0.34 0.34 0.34 0.34 0.33 0.32 0.31 0.29 0.27 0.25 0.23 0.20 0.18 0.17 0.16 0.16 0.16 0.15 0.14 0.14 0.13 0.13 0.13 0.13 0.13 0.13 0.12
0.25 0.27 0.14 0.22 0.35 0.35 0.24 0.29 0.30 0.34 0.31 0.35 0.38 0.34 0.33 0.33 0.34 0.27 0.23 0.19 0.16 0.14 0.15 0.17 0.15 0.17 0.23 0.27 0.28 0.28 0.32 0.34 0.34 0.34 0.34 0.35 0.36 0.38 0.40 0.42 0.44 0.46 0.45 0.44 0.43 0.42 0.41 0.40 0.39 0.39 0.40 0.40 0.40 0.39 0.38 0.36 0.35 0.34 0.34 0.33 0.32 0.31 0.31 0.30 0.30 0.29 0.27 0.25 0.22 0.19 0.17 0.16 0.16 0.16 0.16 0.15 0.15 0.14 0.13 0.13 0.13 0.13 0.13 0.12 0.11 0.11
0.25 0.23 0.13 0.22 0.24 0.24 0.26 0.36 0.41 0.38 0.42 0.38 0.37 0.32 0.33 0.31 0.26 0.22 0.19 0.24 0.19 0.16 0.14 0.12 0.11 0.19 0.24 0.30 0.30 0.31 0.36 0.36 0.36 0.34 0.34 0.35 0.37 0.38 0.39 0.41 0.42 0.42 0.43 0.42 0.42 0.42 0.40 0.38 0.37 0.36 0.36 0.36 0.35 0.35 0.35 0.35 0.34 0.33 0.32 0.30 0.29 0.29 0.29 0.28 0.27 0.26 0.24 0.21 0.19 0.17 0.16 0.16 0.16 0.15 0.15 0.14 0.13 0.13 0.13 0.12 0.12 0.12 0.11 0.11 0.11 0.11
0.31 0.26 0.21 0.18 0.19 0.25 0.32 0.39 0.45 0.43 0.44 0.42 0.41 0.35 0.37 0.35 0.32 0.25 0.19 0.21 0.22 0.20 0.21 0.18 0.15 0.17 0.27 0.31 0.31 0.33 0.34 0.35 0.36 0.35 0.35 0.36 0.37 0.38 0.40 0.41 0.42 0.41 0.41 0.40 0.40 0.40 0.38 0.37 0.36 0.34 0.33 0.32 0.32 0.31 0.31 0.30 0.29 0.29 0.28 0.28 0.27 0.26 0.26 0.25 0.24 0.23 0.21 0.18 0.16 0.15 0.15 0.14 0.13 0.13 0.13 0.12 0.12 0.12 0.12 0.12 0.11 0.11 0.11 0.11 0.11 0.11
0.30 0.22 0.17 0.20 0.27 0.32 0.35 0.38 0.41 0.41 0.41 0.38 0.38 0.40 0.37 0.31 0.30 0.26 0.24 0.26 0.22 0.22 0.19 0.18 0.15 0.18 0.26 0.31 0.32 0.33 0.35 0.35 0.37 0.37 0.36 0.37 0.38 0.39 0.40 0.40 0.40 0.39 0.39 0.38 0.36 0.35 0.34 0.32 0.32 0.32 0.31 0.31 0.30 0.29 0.29 0.28 0.27 0.27 0.26 0.25 0.24 0.24 0.23 0.22 0.21 0.19 0.17 0.15 0.14 0.14 0.14 0.13 0.13 0.12 0.12 0.12 0.12 0.11 0.11 0.11 0.11 0.11 0.11 0.11 0.11 0.10
0.20 0.21 0.19 0.16 0.19 0.22 0.25 0.30 0.32 0.34 0.36 0.34 0.32 0.35 0.35 0.34 0.30 0.29 0.26 0.27 0.20 0.20 0.19 0.17 0.12 0.14 0.22 0.27 0.30 0.33 0.35 0.34 0.35 0.36 0.37 0.36 0.38 0.39 0.40 0.40 0.41 0.39 0.38 0.36 0.34 0.33 0.31 0.30 0.29 0.29 0.28 0.27 0.26 0.26 0.27 0.26 0.26 0.25 0.24 0.24 0.23 0.22 0.21 0.20 0.18 0.15 0.14 0.14 0.13 0.13 0.13 0.12 0.12 0.12 0.12 0.11 0.11 0.11 0.11 0.11 0.11 0.11 0.11 0.11 0.10 0.10
0.22 0.21 0.20 0.14 0.11 0.09 0.09 0.11 0.14 0.18 0.23 0.30 0.32 0.31 0.30 0.28 0.27 0.24 0.19 0.20 0.16 0.19 0.19 0.15 0.13 0.15 0.20 0.23 0.25 0.27 0.28 0.29 0.32 0.34 0.36 0.37 0.38 0.38 0.39 0.39 0.39 0.37 0.36 0.34 0.33 0.31 0.29 0.28 0.27 0.26 0.25 0.25 0.24 0.25 0.25 0.25 0.25 0.24 0.24 0.24 0.23 0.21 0.19 0.17 0.15 0.14 0.14 0.14 0.13 0.13 0.13 0.13 0.12 0.12 0.11 0.11 0.11 0.11 0.11 0.11 0.10 0.10 0.10 0.11 0.10 0.10
0.22 0.24 0.23 0.21 0.17 0.13 0.14 0.16 0.21 0.23 0.22 0.21 0.25 0.27 0.27 0.29 0.27 0.25 0.22 0.18 0.14 0.17 0.16 0.16 0.15 0.15 0.16 0.18 0.20 0.23 0.25 0.24 0.26 0.28 0.30 0.31 0.33 0.35 0.37 0.38 0.37 0.36 0.34 0.33 0.31 0.30 0.28 0.26 0.25 0.24 0.24 0.23 0.23 0.23 0.24 0.24 0.24 0.23 0.23 0.22 0.20 0.18 0.16 0.14 0.13 0.13 0.13 0.13 0.13 0.13 0.13 0.13 0.12 0.12 0.11 0.11 0.11 0.11 0.11 0.11 0.11 0.11 0.10 0.11 0.11 0.11
0.23 0.21 0.23 0.23 0.22 0.21 0.21 0.21 0.23 0.24 0.21 0.22 0.24 0.25 0.27 0.26 0.25 0.22 0.19 0.16 0.19 0.16 0.12 0.17 0.17 0.14 0.14 0.17 0.19 0.21 0.24 0.25 0.26 0.28 0.30 0.31 0.32 0.33 0.34 0.34 0.34 0.33 0.32 0.30 0.29 0.27 0.26 0.25 0.24 0.23 0.23 0.23 0.23 0.23 0.24 0.24 0.23 0.22 0.21 0.20 0.19 0.17 0.14 0.13 0.13 0.13 0.13 0.13 0.13 0.13 0.13 0.12 0.12 0.11 0.11 0.11 0.11 0.11 0.11 0.11 0.11 0.11 0.11 0.11 0.11 0.11
0.23 0.21 0.23 0.22 0.21 0.23 0.23 0.25 0.26 0.26 0.24 0.23 0.24 0.25 0.23 0.24 0.24 0.20 0.20 0.21 0.20 0.15 0.12 0.16 0.17 0.14 0.15 0.17 0.19 0.22 0.24 0.24 0.24 0.25 0.27 0.30 0.32 0.32 0.31 0.30 0.30 0.29 0.28 0.27 0.26 0.25 0.24 0.24 0.23 0.22 0.22 0.22 0.23 0.23 0.23 0.23 0.23 0.21 0.20 0.19 0.17 0.14 0.13 0.13 0.12 0.12 0.12 0.13 0.12 0.13 0.13 0.12 0.12 0.12 0.12 0.11 0.11 0.11 0.11 0.11 0.11 0.11 0.11 0.11 0.11 0.11
0.27 0.22 0.23 0.23 0.21 0.22 0.23 0.25 0.27 0.26 0.26 0.25 0.24 0.24 0.24 0.23 0.22 0.21 0.20 0.21 0.19 0.18 0.18 0.17 0.18 0.17 0.17 0.18 0.19 0.21 0.25 0.26 0.27 0.28 0.28 0.26 0.26 0.27 0.28 0.28 0.27 0.27 0.26 0.25 0.25 0.24 0.24 0.24 0.23 0.22 0.22 0.22 0.22 0.21 0.21 0.21 0.21 0.20 0.18 0.17 0.15 0.13 0.12 0.13 0.12 0.12 0.12 0.12 0.13 0.13 0.13 0.12 0.12 0.12 0.12 0.11 0.11 0.11 0.12 0.11 0.11 0.11 0.11 0.11 0.11 0.11
0.23 0.19 0.23 0.21 0.18 0.18 0.20 0.21 0.22 0.23 0.22 0.20 0.22 0.22 0.22 0.22 0.21 0.21 0.20 0.19 0.20 0.19 0.19 0.18 0.17 0.15 0.18 0.19 0.18 0.19 0.21 0.23 0.24 0.24 0.24 0.25 0.25 0.25 0.25 0.25 0.25 0.25 0.25 0.25 0.24 0.24 0.24 0.24 0.23 0.22 0.21 0.20 0.20 0.20 0.20 0.20 0.19 0.19 0.18 0.15 0.13 0.12 0.12 0.13 0.12 0.12 0.12 0.12 0.13 0.13 0.13 0.13 0.13 0.13 0.12 0.12 0.12 0.12 0.12 0.12 0.11 0.11 0.11 0.11 0.12 0.12
0.17 0.15 0.18 0.16 0.14 0.14 0.15 0.15 0.17 0.17 0.18 0.17 0.17 0.17 0.18 0.19 0.17 0.18 0.17 0.19 0.18 0.16 0.16 0.15 0.12 0.11 0.15 0.17 0.18 0.18 0.18 0.18 0.20 0.22 0.23 0.24 0.24 0.24 0.23 0.24 0.24 0.24 0.23 0.24 0.24 0.24 0.23 0.22 0.21 0.20 0.20 0.20 0.20 0.20 0.19 0.19 0.19 0.18 0.16 0.14 0.13 0.13 0.13 0.13 0.12 0.12 0.12 0.12 0.13 0.13 0.13 0.13 0.13 0.13 0.13 0.13 0.12 0.12 0.12 0.12 0.12 0.12 0.12 0.12 0.12 0.12
0.13 0.12 0.10 0.10 0.09 0.10 0.12 0.12 0.12 0.12 0.11 0.10 0.11 0.13 0.15 0.16 0.18 0.19 0.19 0.19 0.17 0.16 0.12 0.09 0.08 0.11 0.15 0.17 0.16 0.16 0.17 0.17 0.18 0.19 0.21 0.22 0.23 0.23 0.22 0.21 0.22 0.22 0.23 0.23 0.22 0.22 0.21 0.21 0.20 0.21 0.21 0.20 0.20 0.19 0.19 0.19 0.18 0.17 0.15 0.14 0.13 0.13 0.13 0.12 0.12 0.12 0.12 0.12 0.13 0.13 0.14 0.14 0.14 0.14 0.13 0.13 0.13 0.13 0.12 0.12 0.12 0.13 0.13 0.12 0.13 0.12
0.11 0.09 0.07 0.08 0.05 0.06 0.06 0.06 0.07 0.05 0.04 0.04 0.08 0.11 0.10 0.10 0.12 0.10 0.09 0.10 0.12 0.13 0.10 0.11 0.11 0.13 0.14 0.14 0.12 0.12 0.13 0.13 0.14 0.16 0.19 0.19 0.19 0.19 0.21 0.21 0.22 0.22 0.22 0.22 0.22 0.22 0.22 0.22 0.21 0.21 0.21 0.21 0.20 0.20 0.19 0.19 0.17 0.16 0.15 0.14 0.14 0.13 0.13 0.12 0.12 0.12 0.12 0.12 0.13 0.14 0.14 0.14 0.14 0.14 0.14 0.14 0.13 0.13 0.13 0.13 0.13 0.13 0.13 0.13 0.13 0.13
0.05 0.06 0.05 0.06 0.04 0.04 0.05 0.05 0.04 0.03 0.03 0.06 0.08 0.11 0.11 0.09 0.10 0.10 0.10 0.11 0.11 0.13 0.12 0.11 0.11 0.11 0.11 0.12 0.12 0.13 0.14 0.16 0.18 0.19 0.19 0.21 0.21 0.20 0.20 0.20 0.21 0.21 0.21 0.21 0.21 0.21 0.21 0.21 0.22 0.22 0.21 0.20 0.20 0.20 0.19 0.19 0.18 0.16 0.16 0.15 0.14 0.13 0.13 0.13 0.12 0.12 0.13 0.13 0.14 0.14 0.15 0.15 0.15 0.14 0.14 0.14 0.14 0.14 0.14 0.13 0.13 0.14 0.14 0.14 0.13 0.13
0.06 0.06 0.06 0.05 0.05 0.05 0.04 0.04 0.03 0.03 0.05 0.07 0.08 0.09 0.12 0.11 0.10 0.08 0.07 0.08 0.10 0.11 0.12 0.10 0.10 0.12 0.13 0.13 0.14 0.15 0.16 0.17 0.18 0.18 0.19 0.20 0.21 0.20 0.20 0.20 0.20 0.21 0.21 0.21 0.21 0.21 0.22 0.21 0.22 0.22 0.22 0.22 0.21 0.20 0.19 0.18 0.18 0.16 0.15 0.15 0.14 0.13 0.13 0.13 0.13 0.13 0.13 0.13 0.14 0.15 0.15 0.15 0.15 0.15 0.15 0.15 0.15 0.14 0.14 0.14 0.14 0.14 0.14 0.14 0.14 0.13
0.08 0.07 0.07 0.05 0.07 0.04 0.04 0.04 0.04 0.05 0.05 0.06 0.06 0.07 0.09 0.07 0.07 0.05 0.04 0.05 0.06 0.08 0.10 0.09 0.10 0.11 0.12 0.12 0.13 0.13 0.14 0.15 0.13 0.14 0.17 0.18 0.19 0.20 0.20 0.20 0.21 0.22 0.22 0.22 0.23 0.23 0.24 0.24 0.24 0.24 0.23 0.22 0.21 0.20 0.19 0.18 0.17 0.16 0.15 0.14 0.14 0.14 0.13 0.13 0.13 0.13 0.13 0.14 0.14 0.15 0.16 0.16 0.16 0.16 0.16 0.16 0.15 0.15 0.14 0.14 0.14 0.15 0.15 0.14 0.14 0.14
0.11 0.08 0.08 0.06 0.07 0.06 0.04 0.04 0.04 0.03 0.03 0.04 0.05 0.08 0.11 0.11 0.10 0.09 0.07 0.05 0.07 0.08 0.09 0.09 0.09 0.10 0.11 0.12 0.12 0.13 0.13 0.11 0.08 0.08 0.13 0.16 0.17 0.18 0.19 0.20 0.22 0.22 0.23 0.23 0.23 0.23 0.23 0.24 0.24 0.23 0.23 0.22 0.21 0.20 0.19 0.18 0.17 0.16 0.15 0.14 0.14 0.14 0.14 0.13 0.13 0.13 0.14 0.15 0.15 0.16 0.16 0.16 0.16 0.16 0.16 0.16 0.16 0.16 0.15 0.15 0.15 0.15 0.15 0.15 0.14 0.14
0.10 0.11 0.09 0.07 0.07 0.07 0.06 0.04 0.04 0.03 0.03 0.05 0.06 0.08 0.10 0.11 0.10 0.10 0.06 0.04 0.06 0.07 0.08 0.08 0.08 0.10 0.10 0.10 0.11 0.12 0.11 0.07 0.07 0.08 0.11 0.14 0.16 0.17 0.17 0.19 0.20 0.21 0.22 0.22 0.22 0.22 0.22 0.22 0.22 0.22 0.22 0.21 0.20 0.19 0.19 0.18 0.17 0.16 0.15 0.15 0.15 0.15 0.14 0.14 0.14 0.14 0.15 0.16 0.16 0.17 0.17 0.17 0.17 0.17 0.17 0.17 0.17 0.17 0.16 0.16 0.16 0.16 0.16 0.15 0.15 0.14
0.09 0.08 0.08 0.07 0.06 0.07 0.06 0.05 0.05 0.05 0.05 0.07 0.08 0.10 0.11 0.12 0.11 0.08 0.04 0.04 0.07 0.08 0.09 0.09 0.08 0.09 0.10 0.11 0.11 0.11 0.09 0.07 0.07 0.08 0.12 0.13 0.15 0.16 0.17 0.17 0.19 0.20 0.21 0.22 0.23 0.23 0.23 0.23 0.22 0.21 0.20 0.20 0.20 0.20 0.19 0.18 0.17 0.16 0.16 0.16 0.16 0.15 0.14 0.14 0.15 0.16 0.16 0.17 0.17 0.18 0.18 0.18 0.18 0.19 0.18 0.18 0.18 0.18 0.17 0.17 0.17 0.16 0.16 0.16 0.15 0.15
0.08 0.08 0.08 0.06 0.07 0.07 0.07 0.06 0.06 0.06 0.08 0.09 0.09 0.12 0.13 0.13 0.09 0.05 0.04 0.05 0.08 0.09 0.09 0.10 0.10 0.11 0.11 0.11 0.12 0.10 0.11 0.10 0.11 0.12 0.13 0.14 0.14 0.15 0.18 0.19 0.20 0.21 0.21 0.21 0.22 0.23 0.22 0.22 0.21 0.21 0.21 0.21 0.21 0.20 0.20 0.19 0.18 0.17 0.17 0.16 0.16 0.15 0.15 0.16 0.16 0.17 0.17 0.18 0.18 0.19 0.19 0.19 0.20 0.19 0.20 0.20 0.19 0.19 0.18 0.18 0.17 0.17 0.16 0.15 0.15 0.14
0.08 0.09 0.09 0.09 0.07 0.07 0.07 0.06 0.06 0.07 0.09 0.10 0.12 0.13 0.13 0.09 0.05 0.05 0.07 0.10 0.10 0.09 0.10 0.11 0.10 0.11 0.12 0.11 0.12 0.11 0.11 0.13 0.13 0.14 0.13 0.13 0.13 0.14 0.16 0.18 0.19 0.21 0.22 0.23 0.23 0.23 0.22 0.22 0.21 0.21 0.21 0.22 0.22 0.21 0.20 0.19 0.18 0.18 0.18 0.17 0.17 0.17 0.17 0.17 0.18 0.18 0.18 0.19 0.19 0.19 0.20 0.20 0.21 0.21 0.21 0.20 0.20 0.19 0.18 0.18 0.18 0.17 0.16 0.15 0.14 0.13
0.08 0.08 0.07 0.08 0.09 0.09 0.08 0.07 0.06 0.05 0.13 0.12 0.13 0.12 0.13 0.07 0.07 0.10 0.10 0.11 0.12 0.11 0.11 0.12 0.12 0.12 0.13 0.12 0.13 0.12 0.13 0.14 0.14 0.14 0.14 0.14 0.14 0.15 0.16 0.18 0.18 0.19 0.20 0.20 0.21 0.22 0.22 0.22 0.21 0.21 0.22 0.22 0.22 0.21 0.21 0.20 0.19 0.18 0.18 0.18 0.18 0.18 0.18 0.18 0.19 0.19 0.19 0.20 0.20 0.20 0.21 0.21 0.21 0.21 0.21 0.21 0.21 0.20 0.19 0.18 0.18 0.16 0.15 0.14 0.13 0.12
0.12 0.08 0.08 0.09 0.10 0.07 0.07 0.06 0.06 0.08 0.11 0.14 0.11 0.09 0.11 0.10 0.12 0.12 0.11 0.10 0.12 0.12 0.12 0.12 0.13 0.13 0.14 0.13 0.13 0.13 0.14 0.14 0.14 0.15 0.15 0.15 0.16 0.16 0.17 0.18 0.19 0.20 0.20 0.21 0.22 0.22 0.22 0.22 0.22 0.22 0.22 0.23 0.22 0.22 0.21 0.20 0.19 0.19 0.19 0.19 0.20 0.19 0.19 0.19 0.19 0.20 0.20 0.20 0.21 0.21 0.22 0.22 0.22 0.22 0.22 0.22 0.22 0.21 0.19 0.18 0.17 0.16 0.14 0.14 0.13 0.12
0.12 0.10 0.11 0.09 0.11 0.09 0.08 0.09 0.11 0.12 0.13 0.14 0.13 0.12 0.13 0.13 0.14 0.14 0.13 0.13 0.12 0.13 0.14 0.13 0.13 0.14 0.14 0.14 0.14 0.14 0.13 0.14 0.14 0.15 0.15 0.15 0.16 0.16 0.16 0.17 0.18 0.18 0.19 0.20 0.20 0.22 0.22 0.22 0.22 0.22 0.22 0.23 0.22 0.22 0.22 0.21 0.20 0.20 0.20 0.20 0.21 0.20 0.20 0.20 0.20 0.20 0.21 0.21 0.22 0.22 0.23 0.23 0.23 0.23 0.23 0.23 0.22 0.21 0.19 0.18 0.16 0.15 0.14 0.13 0.12 0.11
0.15 0.14 0.15 0.12 0.11 0.13 0.13 0.13 0.13 0.14 0.14 0.15 0.15 0.15 0.14 0.15 0.15 0.15 0.14 0.14 0.14 0.15 0.15 0.14 0.14 0.15 0.15 0.16 0.15 0.15 0.14 0.15 0.15 0.15 0.16 0.16 0.16 0.17 0.18 0.18 0.18 0.19 0.19 0.20 0.21 0.22 0.22 0.22 0.23 0.22 0.22 0.22 0.23 0.23 0.23 0.22 0.22 0.21 0.21 0.22 0.22 0.22 0.21 0.21 0.21 0.22 0.22 0.22 0.23 0.23 0.24 0.24 0.24 0.24 0.24 0.23 0.22 0.20 0.19 0.17 0.15 0.14 0.13 0.12 0.11 0.11
0.15 0.16 0.14 0.12 0.14 0.12 0.10 0.15 0.14 0.14 0.14 0.15 0.15 0.16 0.17 0.17 0.16 0.16 0.16 0.16 0.16 0.16 0.17 0.17 0.17 0.16 0.16 0.17 0.16 0.15 0.15 0.16 0.16 0.16 0.17 0.17 0.17 0.17 0.18 0.18 0.18 0.18 0.19 0.19 0.21 0.22 0.22 0.22 0.22 0.22 0.22 0.22 0.23 0.23 0.23 0.23 0.24 0.23 0.23 0.23 0.23 0.23 0.23 0.23 0.23 0.23 0.23 0.23 0.24 0.24 0.24 0.24 0.24 0.24 0.24 0.23 0.22 0.20 0.18 0.17 0.15 0.13 0.12 0.12 0.11 0.11
0.14 0.18 0.14 0.14 0.14 0.12 0.12 0.14 0.15 0.16 0.16 0.17 0.17 0.16 0.16 0.17 0.17 0.18 0.18 0.18 0.18 0.18 0.18 0.18 0.19 0.18 0.19 0.18 0.18 0.18 0.17 0.18 0.18 0.18 0.18 0.18 0.18 0.19 0.19 0.19 0.20 0.20 0.20 0.21 0.21 0.22 0.23 0.23 0.23 0.23 0.23 0.23 0.24 0.24 0.24 0.24 0.24 0.25 0.25 0.24 0.24 0.24 0.24 0.23 0.24 0.24 0.24 0.24 0.25 0.25 0.25 0.25 0.25 0.24 0.23 0.22 0.21 0.19 0.17 0.16 0.14 0.13 0.12 0.11 0.11 0.10
0.19 0.19 0.15 0.16 0.15 0.16 0.17 0.17 0.18 0.18 0.18 0.18 0.19 0.19 0.19 0.18 0.18 0.18 0.19 0.19 0.19 0.19 0.19 0.20 0.20 0.20 0.20 0.20 0.20 0.20 0.20 0.20 0.20 0.20 0.20 0.20 0.21 0.21 0.21 0.22 0.22 0.22 0.22 0.22 0.23 0.23 0.23 0.23 0.23 0.23 0.24 0.24 0.25 0.25 0.25 0.25 0.25 0.26 0.26 0.25 0.25 0.25 0.24 0.24 0.24 0.25 0.25 0.25 0.25 0.26 0.26 0.26 0.25 0.24 0.23 0.22 0.20 0.18 0.16 0.15 0.13 0.12 0.12 0.11 0.11 0.11
0.22 0.19 0.20 0.19 0.17 0.16 0.16 0.18 0.20 0.17 0.17 0.19 0.21 0.21 0.21 0.21 0.20 0.20 0.20 0.20 0.21 0.20 0.21 0.21 0.21 0.22 0.22 0.22 0.22 0.21 0.21 0.22 0.22 0.23 0.22 0.23 0.23 0.23 0.24 0.24 0.24 0.24 0.25 0.25 0.25 0.25 0.25 0.25 0.24 0.24 0.24 0.25 0.26 0.26 0.26 0.26 0.26 0.27 0.27 0.26 0.26 0.26 0.25 0.25 0.25 0.25 0.25 0.26 0.26 0.26 0.26 0.26 0.25 0.24 0.22 0.21 0.19 0.17 0.15 0.15 0.14 0.13 0.12 0.11 0.11 0.11
0.24 0.25 0.24 0.21 0.20 0.19 0.22 0.24 0.24 0.24 0.23 0.25 0.25 0.25 0.25 0.25 0.24 0.23 0.23 0.23 0.23 0.23 0.23 0.23 0.22 0.22 0.22 0.23 0.23 0.23 0.23 0.23 0.24 0.24 0.24 0.25 0.25 0.25 0.25 0.25 0.25 0.25 0.26 0.26 0.26 0.26 0.26 0.26 0.26 0.26 0.26 0.26 0.26 0.26 0.27 0.27 0.28 0.28 0.28 0.27 0.27 0.26 0.26 0.26 0.26 0.26 0.26 0.26 0.26 0.26 0.26 0.26 0.24 0.23 0.22 0.20 0.18 0.16 0.14 0.13 0.13 0.13 0.13 0.12 0.12 0.11
Wind_Speed
17 18 20 22 22 24 26 29 32 34 32 29 32 37 36 35 35 34 36 37 36 33 30 30 30 29 30 29 28 27 25 24 24 24 23 21 21 20 18 17 18 18 18 17 16 15 17 17 16 15 15 15 15 15 15 15 14 14 15 15 14 14 13 13 14 14 14 13 13 13 14 14 14 15 16 17 17 18 19 19 20 20 21 22 22 23
17 19 21 21 20 22 24 27 31 32 33 30 31 35 34 33 35 34 35 37 35 33 32 32 30 28 28 29 28 28 26 24 24 24 24 23 23 23 21 19 18 19 19 17 15 15 15 15 15 14 14 14 14 14 14 14 13 13 14 14 14 14 14 14 14 15 15 15 15 15 15 15 16 16 17 18 19 19 20 20 21 22 22 23 23 24
18 20 20 18 19 21 23 27 30 32 33 31 31 35 31 30 34 33 32 34 35 34 34 34 31 29 29 28 27 27 27 26 25 25 24 23 23 23 23 21 20 19 18 17 16 16 14 14 13 13 12 12 13 13 13 13 13 13 14 14 14 14 15 15 15 15 15 15 15 16 16 17 17 18 18 19 20 20 21 22 22 23 24 24 24 25
18 18 18 19 20 21 23 26 29 31 32 31 31 33 31 30 33 34 32 33 33 34 36 35 32 31 30 29 28 27 26 26 25 24 24 24 22 22 22 21 21 20 18 18 18 17 16 14 14 13 13 13 13 13 13 13 13 13 13 13 14 14 14 15 15 15 15 16 16 17 17 18 18 19 19 19 20 21 21 22 23 23 24 25 25 26
18 16 14 17 20 22 23 25 28 30 31 30 31 33 32 30 30 32 34 32 30 32 36 35 31 30 30 29 29 28 27 25 25 24 23 24 23 22 22 21 21 20 18 18 18 17 16 14 13 13 13 13 13 12 12 12 13 13 13 13 13 13 14 14 14 15 15 16 17 17 18 18 19 20 20 21 21 21 22 22 23 24 25 25 25 26
17 17 14 14 18 22 24 25 28 31 30 27 30 35 34 30 28 30 34 33 30 31 35 35 30 28 30 30 29 30 28 26 25 24 23 23 22 21 21 21 20 20 19 19 18 17 16 14 14 13 13 13 13 13 13 13 13 13 13 13 13 13 13 14 14 15 15 16 17 17 18 18 19 20 20 21 22 22 22 23 24 24 25 26 26 27
13 16 16 15 17 20 23 25 27 30 30 25 27 34 34 31 29 29 33 32 30 29 32 34 31 29 30 31 31 31 29 26 26 26 24 23 21 20 20 20 20 20 20 20 19 18 17 16 15 14 14 14 14 14 14 14 14 14 13 13 13 13 14 14 15 15 15 16 17 17 18 18 19 19 20 21 22 23 23 24 25 25 26 26 27 28
10 14 16 16 16 19 22 25 26 29 30 24 23 31 35 33 29 27 29 30 29 28 27 30 31 29 30 32 33 32 29 27 26 26 26 24 22 21 20 19 19 20 20 20 19 19 17 16 15 14 14 14 14 14 14 14 14 14 14 13 13 14 15 15 15 15 15 16 16 16 17 18 19 19 20 21 22 23 23 24 25 25 26 26 27 28
9 13 17 17 17 19 22 24 26 29 30 25 20 26 34 34 28 24 24 27 28 27 24 26 29 27 28 31 33 33 32 30 28 27 27 25 23 22 20 19 18 18 18 17 17 16 16 15 14 14 14 14 14 14 14 14 14 14 13 13 13 13 14 14 14 15 15 15 16 16 17 17 18 19 20 21 22 22 23 23 24 25 26 26 27 28
8 12 15 17 17 19 22 23 25 29 29 25 19 21 28 31 27 21 21 24 27 26 23 23 26 26 26 30 32 33 33 33 31 28 27 26 23 22 21 21 19 18 17 16 16 16 15 14 14 14 14 14 14 14 13 13 13 13 13 13 12 12 13 13 14 14 15 15 16 16 16 17 18 19 20 21 22 22 23 24 25 25 26 27 28 29
8 10 13 16 16 18 21 22 25 28 28 25 18 18 24 28 27 21 19 21 22 22 21 21 24 24 25 29 32 33 32 32 31 28 28 27 24 22 21 21 19 18 18 18 18 17 16 16 15 15 14 14 14 13 13 12 12 12 12 12 12 12 12 13 13 13 14 15 16 16 17 17 18 19 20 21 22 23 24 25 26 26 27 28 29 30
8 9 12 15 16 18 21 22 24 25 27 25 18 18 23 26 26 22 19 20 19 20 20 19 20 22 22 25 29 31 29 30 32 30 28 28 26 25 22 21 20 18 18 17 17 17 16 16 15 14 14 14 13 13 13 12 12 12 11 11 11 11 11 12 12 13 14 15 15 16 17 18 19 20 21 22 23 24 25 26 27 28 28 29 30 31
9 11 12 14 16 20 22 23 24 24 26 25 18 19 22 22 25 23 20 20 19 19 21 18 17 18 21 22 25 28 28 28 30 31 30 29 28 27 25 23 21 19 18 17 16 16 15 15 14 14 13 13 12 12 11 11 11 11 11 11 10 10 11 12 12 13 14 14 15 16 17 18 19 20 21 22 23 25 25 26 27 29 30 31 32 33
9 10 13 15 16 20 23 24 26 25 26 25 18 19 20 18 23 24 20 20 19 20 22 20 16 15 18 20 21 25 27 27 28 29 30 29 27 26 24 23 22 20 19 18 16 15 14 14 14 13 13 12 12 11 10 9 9 10 10 10 11 11 12 12 13 14 14 15 16 17 18 19 20 21 22 23 24 25 26 27 29 30 31 32 33 34
9 9 13 17 17 21 24 24 25 24 24 24 18 18 19 15 18 23 22 22 21 21 23 22 18 16 18 19 19 21 24 25 26 26 27 27 25 24 22 22 22 21 20 19 17 15 14 14 14 13 13 12 11 10 10 9 9 10 10 11 11 12 12 13 14 15 16 16 17 18 19 20 21 22 23 24 25 26 28 29 30 31 32 33 35 36
9 10 13 16 17 21 24 23 24 22 21 21 17 16 17 14 13 17 20 22 21 20 22 23 20 18 18 20 20 21 22 24 24 25 26 25 24 24 22 22 21 21 20 18 17 15 14 14 14 13 13 12 11 11 10 10 10 11 11 12 12 12 13 14 14 15 16 17 18 19 20 21 22 23 25 26 27 28 29 30 32 33 34 35 36 37
9 12 14 16 18 21 23 23 22 20 19 20 18 16 17 15 13 13 14 18 20 20 21 22 22 20 18 19 22 22 23 24 25 26 26 25 25 25 24 23 22 21 20 19 17 16 15 15 14 14 14 14 13 12 11 11 11 12 12 12 12 13 13 14 15 16 17 18 19 20 21 23 24 25 26 27 28 30 31 32 33 34 35 36 36 37
12 15 15 17 20 21 22 22 20 17 16 17 17 16 17 16 14 12 10 12 16 19 20 21 22 22 20 19 21 24 26 26 27 27 27 26 26 26 25 25 24 23 22 21 19 18 16 16 15 15 15 14 13 13 12 12 12 12 12 12 13 13 14 15 16 17 19 20 21 22 23 24 25 26 27 29 30 31 32 33 34 35 35 36 37 38
14 17 16 17 22 21 20 20 18 14 14 16 15 14 14 15 15 14 12 11 12 14 17 19 21 23 24 22 22 25 27 27 27 27 27 27 27 27 26 26 26 25 23 22 21 19 18 17 16 16 16 15 14 14 13 13 13 13 13 13 14 15 16 17 18 19 20 22 23 24 25 26 27 28 29 30 31 32 33 34 34 35 36 37 38 38
15 17 17 19 21 20 18 18 17 15 14 14 12 11 11 13 16 16 14 12 12 11 13 14 15 20 25 24 24 26 26 26 26 26 27 28 28 27 27 27 27 26 24 23 21 20 19 18 17 17 17 16 15 15 15 14 15 15 15 16 16 17 18 19 20 21 22 24 25 25 26 27 28 29 30 31 32 33 33 34 35 36 37 38 38 39
14 16 20 20 19 19 19 18 16 14 14 13 13 12 10 10 13 15 14 14 13 12 12 11 12 17 20 20 23 25 25 25 25 24 24 26 27 27 27 27 27 26 25 24 22 21 20 20 19 19 19 18 17 17 17 17 17 18 18 19 19 20 21 22 23 24 24 25 26 26 27 28 29 30 31 32 33 34 34 35 36 37 37 38 39 40
16 17 20 21 19 18 18 15 14 14 14 13 13 12 10 10 11 10 11 14 14 13 14 12 12 14 15 15 19 22 23 24 24 24 23 24 26 27 27 27 27 26 25 24 23 22 22 21 21 21 21 21 21 20 20 20 20 20 21 21 22 23 23 24 24 25 25 26 27 27 28 29 30 31 32 33 34 35 35 36 37 37 38 39 40 41
16 19 19 19 18 17 15 13 13 14 13 13 13 12 10 10 9 8 8 12 13 12 13 12 11 13 14 13 14 18 21 23 24 25 24 24 26 26 26 27 27 27 26 25 24 23 23 22 22 22 22 22 22 22 22 22 22 22 23 23 23 24 24 25 25 26 26 27 28 29 29 30 31 32 33 33 34 35 36 36 37 38 39 40 41 42
16 17 17 16 14 13 11 11 12 13 12 13 13 11 10 9 8 7 7 10 11 11 11 10 10 12 13 13 14 15 18 21 23 24 24 24 25 26 27 27 27 27 26 26 25 24 24 24 23 23 22 22 22 22 22 23 23 24 24 24 25 25 26 26 27 27 28 28 29 29 30 31 31 32 33 34 34 35 36 37 38 39 40 41 42 42
14 15 15 14 11 9 9 10 11 12 12 12 12 11 10 10 8 7 7 8 10 11 10 10 10 11 12 12 13 15 17 19 21 23 23 23 24 25 26 27 27 27 27 26 26 26 25 25 24 24 24 24 23 23 23 24 24 25 25 26 26 27 27 27 28 28 29 29 29 30 30 31 31 32 33 34 35 36 37 38 39 40 40 41 41 42
13 13 13 12 10 10 10 10 12 13 12 12 12 11 9 9 9 8 8 9 9 10 10 10 10 10 10 11 13 14 17 18 20 22 23 24 24 25 26 26 27 27 27 27 27 26 26 26 26 26 25 25 25 25 25 25 25 26 26 27 27 27 28 28 28 28 28 29 29 30 30 31 32 33 34 35 36 36 37 38 38 39 39 40 41 41
12 12 10 9 9 9 10 10 11 12 12 12 11 10 9 9 9 8 8 9 10 10 11 11 11 9 10 12 13 15 16 17 19 21 22 23 24 25 26 26 26 27 27 27 27 27 27 27 27 27 26 26 26 26 26 26 26 27 27 27 27 27 27 27 27 27 28 28 29 30 31 32 32 33 34 34 35 35 35 36 37 37 38 39 40 41
12 10 7 8 7 8 9 9 9 10 11 12 11 11 10 9 10 10 10 10 10 9 10 12 11 10 11 12 14 15 16 16 18 20 21 22 23 24 24 25 25 26 26 26 27 27 27 27 27 26 26 26 26 26 26 26 26 26 26 26 26 26 26 26 27 28 28 29 29 30 30 31 31 31 32 32 33 33 34 35 36 37 39 40 41 42
11 8 6 7 6 7 7 6 7 9 10 11 11 11 10 10 10 11 12 12 11 10 12 12 12 13 13 13 15 16 16 17 18 19 20 21 21 22 23 24 25 25 26 26 27 27 26 26 26 25 25 25 25 25 25 25 25 25 25 25 26 26 26 27 27 28 28 28 28 28 28 29 29 30 31 31 32 34 35 36 37 38 40 41 42 43
8 6 6 6 5 6 6 5 6 8 8 9 9 10 11 10 11 11 12 12 11 11 13 12 12 14 13 13 15 15 15 15 16 17 18 19 20 21 22 23 24 25 25 26 26 26 25 25 25 25 24 24 24 24 24 25 25 25 25 25 25 26 26 26 26 26 26 26 26 26 27 28 29 30 31 33 34 35 36 37 39 40 41 42 43 45
6 5 4 5 5 4 4 4 5 5 7 8 8 9 10 10 10 11 11 12 11 12 12 11 11 14 13 13 13 13 14 14 15 16 18 19 20 21 21 22 23 24 24 24 25 25 25 24 24 24 24 24 24 23 23 23 23 23 23 23 23 24 24 24 24 24 24 25 26 27 29 30 31 32 33 34 35 36 38 39 40 41 42 44 45 46
7 6 5 6 6 4 3 2 2 3 4 6 8 10 10 9 9 10 10 11 11 11 10 10 11 13 13 11 11 12 14 14 15 17 18 19 20 20 21 22 22 23 23 23 24 23 23 23 23 23 23 23 22 22 22 22 21 22 22 22 22 23 23 23 24 25 25 27 28 29 30 31 32 33 34 35 37 38 39 40 42 43 44 45 46 47
8 8 7 6 5 4 3 2 1 1 1 5 8 9 10 10 9 9 10 11 11 11 10 11 12 12 11 11 10 11 13 14 16 17 18 18 19 20 21 21 22 22 22 22 22 22 22 22 22 22 22 22 22 22 21 21 21 22 22 22 23 24 24 25 26 26 27 29 30 31 32 33 34 35 36 37 38 39 41 42 43 44 45 46 47 48
8 9 7 6 5 3 2 2 2 2 2 4 6 6 7 8 8 9 10 10 11 11 9 10 10 9 9 10 10 11 12 13 15 17 17 17 18 19 20 20 21 21 21 21 21 22 22 22 22 22 22 22 22 22 22 22 22 23 23 24 25 25 26 26 27 28 29 31 32 33 33 34 35 36 37 38 39 41 42 43 44 45 46 47 48 49
7 7 6 6 6 4 2 4 3 3 3 3 3 4 4 4 5 7 8 8 10 10 9 8 8 8 9 9 8 9 10 11 12 14 15 16 17 18 19 19 20 20 20 20 21 21 22 22 22 23 23 23 23 23 23 24 24 24 25 25 26 26 27 28 29 30 31 32 33 34 35 35 36 37 38 40 41 42 43 44 45 46 47 48 49 50
5 5 4 4 4 3 4 5 3 3 2 1 1 2 4 3 3 5 6 8 9 10 9 9 9 8 8 8 8 7 8 9 9 11 14 15 16 17 17 18 19 19 20 20 21 22 23 23 24 24 24 24 24 24 24 25 25 25 26 26 27 27 28 29 30 31 32 33 34 35 36 36 37 38 39 41 42 43 44 45 46 47 48 49 50 51
3 3 3 3 2 2 3 2 2 3 3 2 2 3 4 4 5 5 5 7 8 9 10 10 9 9 8 8 7 7 7 8 9 12 14 15 16 17 18 18 19 20 21 21 22 23 24 24 25 25 24 24 25 25 25 26 26 26 27 27 28 29 29 31 32 33 33 34 35 36 37 37 38 40 41 42 43 44 45 46 47 48 49 50 50 51
2 1 2 2 0 1 1 1 2 3 3 4 4 4 5 5 5 5 4 6 7 9 11 12 10 10 9 8 8 8 7 8 10 12 14 15 16 17 18 19 20 21 21 22 22 23 24 24 24 24 24 25 25 26 26 26 26 27 28 28 29 30 31 32 33 34 35 36 36 37 38 39 40 41 42 43 44 45 46 47 48 49 49 50 51 51
2 1 1 1 1 1 1 1 2 2 4 4 4 4 5 6 6 3 4 6 7 8 11 11 11 10 10 10 10 8 8 10 11 12 14 15 16 17 18 19 20 21 21 22 22 23 23 24 24 24 25 25 26 26 27 27 28 28 29 30 30 31 32 34 35 35 36 36 37 38 39 40 41 42 43 44 45 46 47 47 48 49 50 51 51 52
2 2 2 1 2 2 2 2 4 5 5 5 5 5 5 6 4 2 4 7 7 7 9 10 10 10 11 10 10 9 10 11 12 13 13 14 15 17 18 19 20 21 21 22 23 23 24 24 24 25 26 26 27 27 28 28 29 29 30 31 32 33 34 35 35 36 36 37 38 39 40 41 42 43 44 45 45 46 47 48 49 50 50 51 51 52
3 3 3 3 4 4 4 5 6 7 7 6 6 7 6 5 4 4 6 8 7 6 8 10 10 11 11 11 10 11 13 13 12 13 13 12 14 16 18 19 20 21 22 22 23 23 24 25 25 26 27 27 28 28 29 30 30 31 32 32 33 34 36 36 36 36 37 38 39 40 41 42 43 44 44 45 46 47 48 49 50 50 51 51 52 52
4 4 4 5 5 5 5 6 7 8 8 6 5 6 6 6 6 7 8 7 6 7 8 9 10 11 12 13 13 14 15 15 14 14 14 14 15 16 18 19 20 21 22 23 23 24 25 25 26 27 28 28 29 30 30 31 31 32 33 33 35 36 36 36 37 37 38 39 40 41 42 43 43 44 45 46 47 48 49 49 50 51 51 52 52 52
6 5 6 6 6 5 5 5 6 8 6 4 4 5 7 7 8 9 8 7 7 8 9 10 11 12 13 15 16 17 16 16 16 16 16 16 16 17 18 19 20 21 22 23 24 25 25 26 27 28 29 29 30 31 32 32 33 33 34 35 36 37 37 37 38 38 39 40 41 42 42 43 44 45 46 46 47 48 49 50 50 51 51 52 52 52
9 8 8 8 8 6 6 7 8 8 7 8 7 7 9 11 9 8 8 9 10 11 11 12 13 14 15 16 17 18 18 18 18 18 18 18 18 18 19 20 21 22 23 24 25 26 26 27 28 29 30 30 31 32 33 33 34 34 35 36 37 37 37 38 38 39 40 40 41 42 43 44 44 45 46 47 48 49 49 50 50 51 51 51 52 52
11 10 9 10 11 10 10 12 12 11 10 12 12 11 12 14 13 11 11 12 13 13 13 14 14 15 16 17 17 18 19 20 20 20 20 20 20 20 21 21 22 23 24 25 26 27 27 28 29 30 30 31 32 33 34 34 35 35 36 37 37 38 38 38 39 39 40 41 42 43 44 44 45 46 47 47 48 49 49 50 50 50 51 51 51 52
13 12 11 12 13 14 15 16 16 15 14 16 17 16 15 16 16 15 15 15 15 15 15 16 17 17 18 18 19 20 21 21 21 22 22 22 22 22 23 23 24 25 25 26 27 28 28 29 30 31 31 32 33 34 34 35 36 37 37 38 38 38 38 38 39 40 41 42 42 43 44 45 45 46 47 48 48 49 49 49 50 50 50 51 51 51
15 14 14 15 16 16 15 15 15 16 16 17 19 20 20 20 19 18 19 19 19 19 19 19 19 19 20 20 21 22 22 22 23 23 24 24 25 25 25 25 26 26 27 28 28 29 29 30 31 32 33 33 34 35 35 36 37 38 38 38 38 38 39 39 39 40 41 42 43 43 44 45 46 46 47 48 48 49 49 49 49 50 50 51 51 51
16 15 16 17 18 18 18 18 18 19 20 20 21 22 23 24 24 23 23 24 23 23 23 23 22 22 22 23 24 25 25 24 25 25 26 26 27 27 27 28 28 28 29 29 30 30 31 31 32 33 34 34 35 36 36 37 38 38 38 38 39 39 39 39 40 41 42 42 43 44 44 45 46 46 47 48 48 48 49 49 49 50 50 50 50 50
17 17 18 19 20 21 22 23 22 22 23 24 25 26 26 26 27 26 26 26 26 26 26 26 26 26 26 26 26 27 28 27 27 27 28 28 28 29 29 30 30 31 31 31 31 32 32 33 34 34 35 36 36 37 37 38 38 39 39 39 39 39 39 40 41 41 42 42 43 44 44 45 46 46 47 47 48 48 48 48 49 49 50 49 49 49
19 19 19 21 22 22 22 21 20 21 23 24 25 26 26 26 27 28 28 28 28 29 29 29 30 29 29 29 29 29 30 30 30 30 30 30 30 31 31 32 32 33 33 33 33 33 34 35 35 35 36 36 37 37 38 38 39 39 39 40 40 40 40 40 41 41 42 42 43 44 44 45 46 46 46 47 47 48 48 48 49 49 49 49 49 49
21 20 20 22 23 24 24 23 22 23 25 26 25 26 26 26 26 27 28 29 29 30 30 30 31 31 31 32 32 32 32 32 32 32 33 33 33 33 33 34 34 34 34 34 34 35 36 36 36 36 37 37 37 38 38 39 39 40 40 40 40 40 40 41 41 41 42 42 43 43 44 45 45 45 46 47 47 47 47 48 48 49 49 49 49 49
Wind_Direction
244 242 240 237 232 228 223 218 216 215 214 214 214 213 211 209 208 205 203 205 202 201 207 204 200 203 204 207 211 214 215 212 210 210 210 211 211 210 208 208 207 206 206 205 201 199 200 201 200 202 207 210 211 214 219 222 226 230 230 231 233 237 241 244 248 250 253 256 260 266 270 274 276 279 283 287 290 292 294 296 296 297 298 298 298 298
245 241 241 238 231 225 220 215 213 212 212 214 213 209 209 209 206 203 203 207 205 201 204 204 200 201 204 205 209 213 214 215 215 213 212 212 213 213 212 210 208 207 208 207 204 201 199 201 205 208 210 212 214 218 222 224 226 228 230 232 236 240 242 245 250 252 255 259 263 266 270 274 277 279 283 286 288 290 292 294 295 296 297 298 298 298
244 244 244 236 227 222 217 212 209 209 208 210 209 205 206 206 200 200 204 206 205 202 203 203 200 201 203 204 206 210 212 215 216 213 212 213 215 215 215 215 211 208 208 209 208 207 206 206 208 210 213 216 219 223 227 229 229 229 231 234 238 242 244 247 253 256 259 262 265 268 271 274 277 280 284 287 288 289 290 293 294 295 296 297 298 298
242 243 241 230 221 218 216 211 207 206 205 205 206 203 202 200 196 197 201 204 205 204 202 200 200 201 202 204 205 208 211 213 212 212 212 213 214 213 212 213 211 209 210 210 210 211 212 213 214 217 221 223 225 227 230 231 230 230 232 236 239 243 247 250 255 260 263 265 267 271 274 277 278 280 283 286 288 289 290 293 295 297 297 297 297 298
240 239 235 225 217 213 212 209 204 203 202 202 204 203 200 198 196 195 196 197 199 202 202 199 200 204 204 204 206 208 211 212 212 212 212 213 214 214 212 211 212 212 211 211 211 214 216 217 219 221 225 228 229 229 231 231 231 232 235 239 244 247 251 256 260 264 265 267 269 270 273 275 276 277 280 283 287 289 291 293 295 297 298 298 298 299
241 235 229 222 215 210 208 205 202 200 199 201 203 201 197 194 190 188 190 192 193 199 204 202 202 208 206 204 206 208 209 212 214 212 212 215 216 217 216 215 215 215 214 214 215 217 220 221 223 226 229 231 232 232 231 232 234 236 239 243 247 250 254 259 263 264 265 266 268 269 271 274 276 279 281 284 287 289 291 293 294 296 298 298 298 298
240 227 218 214 211 208 205 202 199 196 196 200 199 195 193 190 186 184 187 191 194 197 202 204 205 207 206 206 207 206 206 210 213 211 212 217 219 219 220 219 220 219 220 220 221 224 227 230 233 234 235 235 236 236 235 236 237 239 242 245 248 252 257 261 264 265 265 265 267 270 273 276 279 282 284 286 288 289 291 292 294 295 297 298 299 299
232 218 210 206 205 204 201 199 195 192 193 195 191 189 190 188 186 186 187 191 194 193 198 204 205 206 207 207 206 207 206 207 211 212 214 217 219 219 220 221 222 221 222 223 225 229 231 235 238 237 237 238 238 239 240 242 242 243 245 246 248 252 258 263 266 267 268 269 271 273 275 278 281 283 285 286 288 290 292 293 294 295 297 299 300 300
225 212 206 200 200 200 196 194 190 189 191 189 184 188 190 188 186 187 189 191 192 192 196 204 204 206 210 208 208 209 210 209 210 211 213 216 217 218 219 220 221 218 218 221 225 228 229 230 234 235 236 236 238 240 243 244 244 245 247 249 251 256 260 265 268 270 271 272 274 276 277 280 282 284 285 287 289 291 292 294 295 297 298 299 300 301
219 208 202 196 197 195 190 190 187 186 188 182 178 187 190 189 189 188 188 188 190 194 198 203 204 206 210 210 209 211 213 213 212 212 213 216 217 218 219 218 217 215 216 221 223 225 229 231 235 237 236 237 240 243 244 245 247 249 253 255 258 262 264 267 270 271 272 273 274 276 279 281 283 285 286 288 290 292 294 296 297 298 298 300 301 302
210 201 195 192 192 188 184 185 184 184 184 178 176 184 185 189 192 192 190 186 188 195 198 202 206 206 210 212 211 212 215 213 212 215 215 215 216 217 217 216 216 219 221 224 224 226 231 235 236 236 236 238 240 242 243 245 247 250 253 256 259 263 265 268 271 272 273 274 276 278 281 283 285 287 289 290 292 294 295 296 296 297 298 299 300 301
199 190 186 189 187 180 178 180 180 182 181 177 180 183 180 186 191 193 195 191 191 196 195 198 204 205 208 212 212 213 213 210 211 215 214 214 216 217 218 218 218 221 221 222 223 226 231 231 231 232 233 236 238 240 241 242 245 247 250 254 258 263 267 269 272 274 276 278 280 282 284 286 288 289 290 291 293 293 294 295 295 296 297 298 299 300
187 185 181 183 182 176 173 175 176 178 179 177 179 180 178 184 190 193 197 196 197 198 196 197 199 202 208 210 211 210 209 209 211 212 211 210 213 217 220 221 221 222 220 221 222 223 225 223 223 225 226 229 232 234 237 240 244 248 251 256 260 264 267 269 273 276 279 281 283 285 286 288 289 290 291 291 292 293 294 295 295 297 298 299 300 301
171 178 177 174 176 173 170 171 173 174 177 177 177 179 179 183 190 194 197 197 199 198 199 201 199 201 207 208 210 209 207 208 210 211 211 209 210 215 220 222 223 223 222 222 221 220 220 218 221 224 225 228 230 232 234 238 244 249 253 258 262 266 269 271 274 277 280 282 283 285 286 287 288 290 291 292 293 294 295 296 298 299 300 301 301 302
157 164 171 168 167 169 168 170 171 169 174 178 178 178 179 180 188 196 200 202 200 197 198 203 204 206 207 208 211 208 204 205 207 208 209 209 211 214 218 220 221 221 221 220 219 219 221 223 225 225 225 228 230 233 237 242 250 256 260 264 267 269 272 275 278 280 282 283 285 287 288 290 291 292 293 295 296 297 298 299 300 301 301 302 302 303
148 151 162 163 161 163 164 167 168 166 172 180 181 180 181 179 179 189 200 202 198 198 202 206 210 212 210 212 212 207 205 206 206 206 208 211 213 214 216 219 219 218 216 215 217 219 222 225 227 225 224 227 232 239 245 250 258 262 264 268 270 272 274 278 281 283 285 286 288 290 291 293 295 295 296 297 298 299 299 300 300 301 302 302 303 303
144 143 149 155 155 159 161 162 163 166 171 178 181 183 184 182 172 170 187 196 197 204 209 209 213 217 216 216 214 210 211 212 211 211 212 214 215 215 217 217 217 215 213 213 217 220 225 228 229 228 228 232 236 241 247 252 258 262 265 268 271 274 277 280 283 285 287 288 290 292 293 294 295 296 296 297 297 299 300 300 301 301 302 302 303 303
140 138 141 150 151 154 158 155 156 165 169 172 180 183 183 184 180 169 171 185 196 208 213 214 218 219 219 218 214 212 215 216 216 215 215 215 215 215 215 215 215 217 217 219 222 226 230 234 234 231 230 233 236 240 245 250 256 261 266 269 273 277 280 283 285 287 289 291 292 293 294 295 296 296 297 298 299 300 300 301 301 301 302 302 303 303
137 135 138 148 149 150 155 154 155 165 167 168 178 181 181 188 192 185 180 179 184 199 211 218 222 222 221 221 217 215 216 216 216 216 216 216 214 213 213 214 217 220 223 226 229 232 235 237 237 233 231 232 234 239 244 249 257 263 269 273 276 279 283 285 287 289 291 291 292 293 294 296 297 297 298 299 300 300 300 300 301 301 301 302 302 303
137 137 138 147 150 150 153 153 156 163 162 162 170 176 180 189 194 194 196 193 185 189 202 211 220 223 222 220 217 216 215 213 213 214 215 215 214 214 215 218 221 224 227 231 233 235 236 236 236 233 233 235 237 242 247 253 259 264 270 275 278 281 284 286 287 288 290 291 293 294 295 295 296 297 298 299 299 300 300 300 301 301 302 302 303 303
136 138 139 145 150 150 152 153 154 159 160 162 167 172 173 176 185 194 201 202 196 196 200 202 216 224 223 220 217 216 215 213 211 212 214 215 215 216 218 221 224 226 230 233 235 237 237 237 237 238 239 241 244 248 252 257 261 266 271 275 278 281 283 285 286 288 289 290 292 293 294 295 296 297 298 298 299 299 300 301 301 302 302 303 304 304
135 138 140 144 147 150 155 159 159 161 163 166 169 170 166 161 165 178 200 207 205 206 206 205 217 225 221 219 219 215 212 212 211 212 216 218 218 219 221 223 225 228 231 234 236 238 239 241 242 243 244 246 249 253 256 260 263 267 272 275 278 281 283 285 286 287 288 289 290 292 293 294 295 296 297 298 299 299 300 301 302 303 303 304 304 305
135 137 138 141 147 155 162 165 164 165 164 165 169 168 164 164 159 157 186 200 198 204 210 209 219 226 218 214 217 215 211 210 211 215 219 221 222 222 224 226 227 230 232 235 237 238 240 242 243 245 246 248 250 253 257 261 264 267 271 274 278 280 282 284 285 287 288 289 290 291 292 293 295 296 297 298 299 300 301 302 303 303 304 304 304 305
130 135 137 139 147 158 167 169 172 172 165 165 172 172 170 176 174 171 186 188 184 193 200 201 215 224 218 215 218 215 211 209 211 215 218 222 225 225 227 228 230 232 234 236 237 238 240 242 244 246 248 249 251 254 257 261 264 268 271 275 278 280 282 284 286 287 288 289 290 291 292 294 295 296 297 298 299 300 301 302 303 303 304 304 304 305
127 135 140 141 145 155 165 174 181 181 173 172 179 181 180 182 179 178 182 178 182 192 192 193 212 223 221 219 219 215 212 212 213 216 218 220 223 225 227 229 231 232 234 236 238 239 241 244 246 248 249 251 254 256 259 262 266 269 272 275 278 281 283 285 286 287 288 289 290 291 293 295 296 297 298 299 300 301 302 302 303 303 303 304 305 306
127 135 140 144 154 166 172 179 185 186 184 183 186 188 188 187 186 183 175 174 187 195 192 196 212 226 227 222 220 217 215 216 217 218 220 221 222 224 226 229 230 232 234 235 237 240 242 245 247 249 251 253 255 258 260 263 266 269 272 275 278 280 282 284 285 287 288 289 291 292 294 295 297 298 300 300 301 301 302 302 303 304 305 306 307 308
128 133 134 139 150 165 174 182 188 188 189 192 195 199 201 200 200 194 186 192 198 195 203 212 214 226 233 222 219 220 218 218 219 218 220 222 223 224 226 228 230 232 234 236 238 241 243 245 247 249 251 253 256 258 261 263 266 269 271 274 277 279 281 283 285 286 288 290 292 293 294 296 298 299 300 301 301 302 303 304 305 306 307 308 309 309
127 129 128 132 139 158 171 183 192 192 194 199 202 207 212 214 212 207 207 215 209 200 222 230 219 226 237 225 218 221 220 219 220 218 218 221 222 224 225 226 228 231 233 236 238 240 243 245 247 249 251 253 255 257 260 263 266 268 271 274 276 279 281 283 285 287 289 291 292 294 295 298 299 300 301 302 303 304 305 306 307 308 308 309 310 310
120 125 137 140 149 170 174 183 190 187 192 200 204 209 218 221 219 219 223 228 222 219 236 241 228 231 240 234 227 226 225 226 226 224 223 224 225 226 227 228 230 232 234 236 238 240 243 245 247 249 251 252 254 257 259 262 265 268 271 273 276 279 281 283 285 287 289 291 293 295 297 299 300 301 302 303 304 305 306 307 308 309 309 310 310 310
110 117 133 134 142 168 175 178 182 180 189 202 207 212 218 222 223 225 230 235 233 233 242 244 239 239 241 238 234 230 229 232 231 230 230 228 228 229 230 231 233 234 235 237 239 241 243 245 247 248 250 252 253 255 258 261 264 267 271 274 276 279 281 284 286 288 289 292 294 297 298 299 300 302 303 304 305 306 307 308 308 309 310 310 310 311
104 114 122 120 127 153 165 165 178 188 197 208 218 222 221 224 229 227 229 233 234 238 243 243 243 246 244 241 238 230 226 228 228 228 230 230 230 230 231 232 233 234 235 236 238 240 242 243 245 247 248 250 252 254 257 261 265 268 271 273 276 278 281 283 285 287 290 293 296 297 298 299 301 302 303 304 305 306 307 308 309 309 309 310 310 310
95 108 105 104 119 147 149 137 188 214 209 222 234 231 223 224 230 229 228 230 228 230 237 240 243 247 243 238 237 230 225 227 226 226 228 229 229 229 229 231 232 232 234 234 236 238 240 241 242 244 246 248 251 253 257 260 263 266 269 272 274 277 280 283 285 288 291 294 295 296 298 299 301 302 303 305 306 307 308 308 308 309 309 309 310 310
95 104 104 102 112 138 138 120 167 184 206 240 239 231 223 222 226 230 235 238 232 226 230 237 241 242 238 234 235 232 230 229 227 225 224 225 225 226 227 228 229 230 231 232 233 235 237 239 240 242 244 247 249 252 255 259 262 266 269 272 275 278 281 284 286 289 292 293 295 296 298 299 300 302 304 305 306 307 308 308 308 309 309 309 310 310
99 101 107 107 103 114 125 98 114 137 172 223 224 216 220 224 224 229 238 240 233 231 238 243 243 239 233 230 229 226 224 224 223 222 220 219 219 220 223 224 226 227 228 229 232 233 235 237 240 242 245 247 250 254 258 261 264 268 272 275 277 280 282 285 288 290 292 293 295 296 297 299 300 302 304 305 306 307 308 308 308 309 309 310 310 310
96 97 105 106 100 105 96 81 99 158 188 198 195 186 194 201 210 230 246 242 229 229 238 240 235 230 226 225 225 222 222 225 227 224 222 222 221 221 223 225 226 228 229 232 234 236 237 240 243 246 248 251 254 257 260 264 267 271 274 276 279 281 284 286 288 290 291 293 294 296 297 298 300 302 304 305 306 307 308 308 308 309 309 310 310 310
93 96 99 99 102 108 96 101 138 202 220 196 188 197 192 184 192 224 248 241 224 220 226 229 228 226 226 229 232 233 234 238 242 237 231 229 230 230 230 232 232 233 235 237 239 240 242 244 246 249 251 254 257 259 263 266 269 272 275 278 280 282 284 286 288 289 291 293 294 295 297 299 300 302 304 305 306 307 307 308 308 309 309 309 310 310
93 92 87 83 100 123 117 151 237 296 316 288 232 211 203 200 202 212 238 244 228 217 219 225 228 227 228 233 236 239 243 251 259 254 242 238 238 239 240 242 241 241 242 243 244 245 246 248 250 252 255 257 259 262 265 268 270 273 276 279 281 283 285 286 288 289 291 293 294 296 297 299 301 302 303 305 306 307 307 307 308 308 309 309 310 310
83 94 121 109 51 123 113 293 308 335 306 260 238 223 215 213 210 210 239 257 241 221 217 221 225 225 225 229 232 236 246 258 264 258 246 242 243 244 245 246 247 247 248 248 249 251 252 254 255 257 259 260 262 264 267 269 272 274 277 279 281 283 285 286 288 290 291 293 294 296 298 299 301 302 303 304 305 306 307 307 308 308 309 309 310 310
32 5 89 110 296 244 160 244 258 248 255 255 245 233 222 217 217 226 275 272 252 228 220 222 225 223 221 222 224 229 244 255 261 260 252 247 246 246 248 250 250 251 253 253 254 255 256 257 259 260 262 263 264 266 268 271 273 275 277 280 282 283 284 286 288 290 291 293 295 296 298 299 300 301 303 304 305 306 306 307 307 308 309 309 310 310
343 326 306 247 247 239 226 250 258 257 262 264 251 236 227 224 222 231 277 270 255 234 226 225 226 225 222 221 225 236 248 254 260 265 261 255 252 252 252 253 253 254 255 256 257 258 259 260 261 262 264 265 266 267 269 271 273 276 278 280 282 283 284 286 288 290 292 293 295 296 298 299 300 301 302 303 304 305 306 307 307 308 309 309 310 310
295 295 279 253 249 242 236 255 273 271 263 258 247 234 226 232 238 235 249 258 254 244 237 232 229 229 226 223 231 245 251 252 261 269 269 265 262 259 257 257 257 258 258 258 259 260 262 263 264 265 266 266 267 268 269 271 274 276 278 280 282 283 285 287 289 290 291 293 295 296 297 299 300 301 302 303 304 305 306 307 307 308 309 309 310 310
266 275 273 258 254 251 246 258 281 282 269 246 231 233 232 234 242 248 258 267 261 251 247 242 238 236 233 231 237 248 253 256 262 269 270 269 269 266 263 261 261 262 262 262 262 262 263 265 266 266 267 268 268 269 270 272 274 276 278 280 281 283 286 288 289 290 291 293 294 296 297 299 300 301 302 303 304 305 306 307 307 308 309 309 310 310
258 262 268 259 252 255 260 263 276 283 270 213 196 240 249 245 253 261 266 270 266 258 254 251 248 245 243 243 247 253 259 262 264 267 269 270 271 270 267 263 262 263 263 263 263 263 264 266 266 267 268 269 269 270 271 272 274 276 278 280 282 284 287 288 288 290 291 292 294 295 297 298 300 301 302 303 304 305 306 307 307 308 309 309 310 311
264 260 266 267 261 255 255 255 261 271 254 216 215 252 254 248 261 272 267 266 268 265 261 260 259 255 252 253 255 257 260 264 266 268 269 269 271 271 269 266 265 265 265 265 265 265 265 266 268 268 270 271 271 271 272 273 275 277 279 280 283 285 286 287 288 290 291 293 294 295 297 298 300 301 302 303 304 305 306 307 307 308 309 310 310 311
266 263 266 268 266 263 263 262 266 273 260 239 244 263 265 259 264 268 266 268 269 266 264 265 264 261 258 259 261 262 263 266 268 269 269 270 270 271 270 269 267 267 267 267 267 267 267 268 269 270 271 272 272 272 273 274 276 277 279 281 283 285 286 288 289 290 292 293 294 295 297 298 299 301 302 303 304 305 306 306 307 308 309 310 310 311
269 268 269 272 274 276 275 270 267 271 267 254 253 260 266 268 268 266 266 269 269 267 268 268 267 266 265 264 265 266 267 268 269 270 271 272 272 271 271 271 271 270 270 270 270 269 269 270 271 272 273 273 273 274 274 275 276 278 280 282 284 286 287 288 289 290 291 292 294 295 296 298 299 301 302 303 305 305 306 307 307 309 309 310 311 311
272 266 267 273 276 277 278 276 270 268 266 261 260 262 263 266 267 266 267 269 269 269 270 271 271 271 270 268 268 268 269 270 270 272 273 273 273 272 272 272 272 272 271 271 271 271 271 272 273 273 274 274 275 275 275 276 278 279 282 284 285 287 288 289 289 290 291 292 294 295 296 297 299 301 302 304 305 306 306 307 308 309 310 310 311 311
272 267 268 271 270 270 275 277 275 273 271 268 266 265 264 264 264 264 266 268 270 271 272 272 272 272 271 271 270 270 271 271 271 272 273 273 274 274 273 273 272 272 272 272 272 272 272 273 274 274 275 275 276 276 276 277 279 280 282 284 286 287 288 289 289 290 291 292 294 295 296 297 299 301 302 304 305 306 306 307 308 309 310 310 311 311
269 269 269 271 271 273 276 276 274 274 275 271 266 264 263 264 264 265 266 268 269 271 272 272 272 271 271 271 270 270 271 271 271 272 273 273 274 274 274 273 273 272 272 272 272 272 272 273 274 275 276 277 277 277 277 278 279 281 282 284 286 287 288 289 289 290 291 293 294 295 296 297 299 301 303 304 305 306 306 307 308 309 310 310 310 310
266 269 271 273 274 273 273 271 268 270 273 272 268 266 266 266 266 267 268 269 269 271 272 272 273 273 272 271 270 270 270 271 272 272 273 274 275 275 274 273 273 274 274 273 273 273 272 273 274 275 276 277 278 278 278 279 280 281 283 284 285 286 287 288 289 290 292 293 294 295 296 298 299 301 303 304 305 306 307 307 308 309 310 310 310 310
261 266 267 268 271 271 271 269 267 268 271 272 271 269 269 268 267 267 268 269 270 271 272 273 274 275 275 273 272 270 270 272 272 272 273 274 275 274 274 274 274 274 275 274 274 274 273 274 275 276 277 278 279 279 279 280 280 281 283 284 285 286 287 288 289 291 292 293 294 295 296 298 299 301 303 304 305 306 307 308 309 309 310 310 310 310